EW4573 Weather Reports


time (UTC)temp
F
wind
direction
speed
knots
gust
knots
rain 1hr
in
rain 24hr
in
rain mn
in
humidity
%
barometer
mb
20260906162503 82 54 0.9 6.1 0.00 0.03 0.00 73 1012.7
20260906162003 82 64 0.9 7.0 0.00 0.03 0.00 73 1012.7
20260906161503 82 59 1.7 8.7 0.00 0.03 0.00 73 1012.6
20260906161003 82 50 1.7 8.7 0.00 0.03 0.00 71 1012.7
20260906160503 83 52 0.9 5.2 0.00 0.03 0.00 74 1012.7
20260906160003 82 54 0.9 5.2 0.00 0.03 0.00 73 1012.8
20260906155503 82 10 0.9 3.5 0.00 0.03 0.00 76 1012.9
20260906155003 81 48 1.7 6.1 0.00 0.03 0.00 75 1012.9
20260906154503 81 49 1.7 6.1 0.00 0.03 0.00 76 1013.0
20260906154003 81 39 0.9 5.2 0.00 0.03 0.00 75 1013.1
20260906153503 81 33 0.9 5.2 0.00 0.03 0.00 77 1013.2
20260906153003 80 43 1.7 6.1 0.00 0.03 0.00 80 1013.1
20260906152503 80 62 0.9 6.1 0.00 0.03 0.00 79 1013.0
20260906152003 79 59 1.7 5.2 0.00 0.03 0.00 81 1013.1
20260906151504 79 57 1.7 6.1 0.00 0.03 0.00 80 1013.1
20260906151003 79 57 0.9 6.1 0.00 0.03 0.00 80 1013.1
20260906150503 79 39 0.9 4.3 0.00 0.03 0.00 81 1013.1
20260906150003 79 27 1.7 6.1 0.00 0.03 0.00 81 1013.0
20260906145503 79 41 2.6 6.1 0.00 0.03 0.00 82 1012.9
20260906145003 78 53 1.7 6.1 0.00 0.03 0.00 81 1012.9
20260906144503 79 57 0.9 6.1 0.00 0.03 0.00 82 1012.8
20260906144003 78 34 0.9 5.2 0.00 0.03 0.00 82 1012.7
20260906143503 78 29 0.9 6.1 0.00 0.03 0.00 81 1012.7
20260906143003 78 22 0.9 6.1 0.00 0.03 0.00 83 1012.8
20260906142503 78 31 0.0 2.6 0.00 0.03 0.00 84 1012.7
20260906142003 77 49 0.9 6.1 0.00 0.03 0.00 84 1012.8
20260906141503 77 40 1.7 6.1 0.00 0.03 0.00 84 1012.7
20260906141003 77 52 1.7 4.3 0.00 0.03 0.00 84 1012.6
20260906140503 78 65 0.9 4.3 0.00 0.03 0.00 83 1012.7
20260906140003 78 61 0.9 4.3 0.00 0.03 0.00 85 1012.6
20260906135503 77 65 0.9 4.3 0.00 0.03 0.00 87 1012.6
20260906135003 76 60 0.9 3.5 0.00 0.03 0.00 86 1012.6
20260906134503 76 51 0.0 3.5 0.00 0.03 0.00 86 1012.6
20260906134003 76 29 0.9 3.5 0.00 0.03 0.00 86 1012.6
20260906133503 76 38 2.6 5.2 0.00 0.03 0.00 86 1012.6
20260906133003 76 47 1.7 5.2 0.00 0.03 0.00 86 1012.5
20260906132504 76 55 1.7 4.3 0.00 0.03 0.00 87 1012.5
20260906132003 75 59 1.7 5.2 0.00 0.03 0.00 86 1012.5
20260906131503 75 62 0.9 5.2 0.00 0.03 0.00 87 1012.6
20260906131003 75 30 1.7 7.0 0.00 0.03 0.00 87 1012.4
20260906130503 75 47 2.6 7.8 0.00 0.03 0.00 87 1012.4
20260906130003 75 61 2.6 7.8 0.00 0.03 0.00 87 1012.4
20260906125503 75 47 1.7 6.1 0.00 0.03 0.00 89 1012.4
20260906125003 75 32 2.6 6.1 0.00 0.03 0.00 89 1012.3
20260906124503 75 33 1.7 6.1 0.00 0.03 0.00 90 1012.3
20260906124003 74 45 0.9 6.1 0.00 0.03 0.00 91 1012.3
20260906123503 74 56 0.9 4.3 0.00 0.03 0.00 91 1012.4
20260906123003 74 60 0.9 3.5 0.00 0.03 0.00 91 1012.3
20260906122503 74 55 1.7 4.3 0.00 0.03 0.00 92 1012.3
20260906122003 74 48 1.7 6.1 0.00 0.03 0.00 92 1012.3
20260906121503 74 49 0.9 6.1 0.00 0.03 0.00 92 1012.3
20260906121003 74 67 0.9 3.5 0.00 0.03 0.00 93 1012.3
20260906120503 73 70 0.9 4.3 0.00 0.03 0.00 93 1012.3
20260906120004 73 56 0.9 4.3 0.00 0.03 0.00 94 1012.3
20260906115503 73 50 0.9 4.3 0.00 0.03 0.00 94 1012.2
20260906115003 73 65 0.9 2.6 0.00 0.03 0.00 94 1012.2
20260906114503 73 64 0.9 2.6 0.00 0.03 0.00 94 1012.1
20260906114003 73 57 0.9 2.6 0.00 0.03 0.00 94 1012.0
20260906113503 73 59 0.0 2.6 0.00 0.03 0.00 94 1011.9
20260906113003 73 55 0.0 2.6 0.00 0.03 0.00 94 1011.9
20260906112503 73 54 0.0 3.5 0.00 0.03 0.00 94 1011.9
20260906112003 73 64 0.0 3.5 0.00 0.03 0.00 94 1011.8
20260906111503 73 65 0.9 3.5 0.00 0.03 0.00 94 1011.6
20260906111003 73 63 1.7 4.3 0.00 0.03 0.00 94 1011.5
20260906110503 73 72 1.7 4.3 0.00 0.03 0.00 94 1011.4
20260906110003 73 65 0.9 4.3 0.00 0.03 0.00 94 1011.4
20260906105503 73 43 0.9 4.3 0.00 0.03 0.00 94 1011.4
20260906105003 73 57 0.9 4.3 0.00 0.03 0.00 94 1011.2
20260906104503 73 76 1.7 5.2 0.00 0.03 0.00 94 1011.2
20260906104003 73 67 0.9 5.2 0.00 0.03 0.00 94 1011.2
20260906103503 73 48 0.9 5.2 0.00 0.03 0.00 94 1011.2
20260906103003 73 64 0.0 4.3 0.00 0.03 0.00 95 1011.2
20260906102503 73 55 0.0 2.6 0.00 0.03 0.00 95 1011.2
20260906102003 73 34 0.0 2.6 0.00 0.03 0.00 95 1011.2
20260906101503 73 64 0.9 2.6 0.00 0.03 0.00 95 1011.1
20260906101003 73 68 0.9 2.6 0.00 0.03 0.00 95 1011.1
20260906100503 73 46 0.0 2.6 0.00 0.03 0.00 95 1011.0
20260906100003 73 21 0.0 1.7 0.00 0.03 0.00 95 1010.9
20260906095503 73 48 0.0 2.6 0.00 0.03 0.00 96 1010.8
20260906095003 73 74 0.0 2.6 0.00 0.03 0.00 96 1010.7
20260906094504 73 71 0.0 1.7 0.00 0.03 0.00 96 1010.7
20260906094003 73 49 0.0 1.7 0.00 0.03 0.00 96 1010.6
20260906093503 73 46 0.0 2.6 0.00 0.03 0.00 96 1010.4
20260906093003 73 62 0.0 2.6 0.00 0.03 0.00 96 1010.4
20260906092503 73 68 0.0 2.6 0.00 0.03 0.00 96 1010.5
20260906092003 73 67 0.0 2.6 0.00 0.03 0.00 96 1010.5
20260906091503 73 0 0.0 0.0 0.00 0.03 0.00 96 1010.3
20260906091003 72 0 0.0 0.0 0.00 0.03 0.00 96 1010.3
20260906090503 72 67 0.0 0.9 0.00 0.03 0.00 96 1010.3
20260906090003 72 67 0.0 0.9 0.00 0.03 0.00 96 1010.3
20260906085503 72 67 0.0 0.9 0.00 0.03 0.00 96 1010.3
20260906085003 72 0 0.0 0.0 0.00 0.03 0.00 96 1010.3
20260906084503 72 0 0.0 0.0 0.00 0.03 0.00 96 1010.2
20260906084003 72 0 0.0 0.0 0.00 0.03 0.00 96 1010.2
20260906083503 72 0 0.0 0.0 0.00 0.03 0.00 96 1010.2
20260906083003 72 0 0.0 0.0 0.00 0.03 0.00 96 1010.2
20260906082503 71 0 0.0 0.0 0.00 0.03 0.00 96 1010.2
20260906082003 71 15 0.0 0.9 0.00 0.03 0.00 96 1010.2
20260906081503 71 15 0.0 0.9 0.00 0.03 0.00 96 1010.1
20260906081003 71 0 0.0 0.0 0.00 0.03 0.00 96 1010.0
20260906080503 71 0 0.0 0.0 0.00 0.03 0.00 96 1009.9
20260906080003 71 0 0.0 0.0 0.00 0.03 0.00 96 1009.7
20260906075503 71 0 0.0 0.0 0.00 0.03 0.00 96 1009.7
20260906075004 71 0 0.0 0.0 0.00 0.03 0.00 96 1009.7
20260906074503 71 0 0.0 0.0 0.00 0.03 0.00 96 1009.7
20260906074003 71 0 0.0 0.0 0.00 0.03 0.00 96 1009.6
20260906073503 71 0 0.0 0.0 0.00 0.03 0.00 96 1009.5
20260906073003 71 0 0.0 0.0 0.00 0.03 0.00 96 1009.6
20260906072503 71 0 0.0 0.0 0.00 0.03 0.00 95 1009.6
20260906072003 71 0 0.0 0.0 0.00 0.03 0.00 95 1009.6
20260906071503 71 0 0.0 0.0 0.00 0.03 0.00 96 1009.6
20260906071003 71 0 0.0 0.0 0.00 0.03 0.00 96 1009.7
20260906070503 71 0 0.0 0.0 0.00 0.03 0.00 96 1009.6
20260906070003 71 0 0.0 0.0 0.00 0.03 0.00 96 1009.6
20260906065503 71 0 0.0 0.0 0.00 0.03 0.00 95 1009.6
20260906065003 71 0 0.0 0.0 0.00 0.03 0.00 95 1009.6
20260906064503 71 0 0.0 0.0 0.00 0.03 0.00 95 1009.7
20260906064003 71 0 0.0 0.0 0.00 0.03 0.00 95 1009.8
20260906063503 71 0 0.0 0.0 0.00 0.03 0.00 95 1009.9
20260906063003 71 0 0.0 0.0 0.00 0.03 0.00 95 1010.0
20260906062503 71 0 0.0 0.0 0.00 0.03 0.00 95 1009.9
20260906062003 72 0 0.0 0.0 0.00 0.03 0.00 95 1010.0
20260906061503 72 0 0.0 0.0 0.00 0.03 0.00 95 1009.9
20260906061003 72 0 0.0 0.0 0.00 0.03 0.00 95 1010.0
20260906060503 72 0 0.0 0.0 0.00 0.03 0.00 95 1010.0
20260906060003 72 0 0.0 0.0 0.00 0.03 0.00 95 1010.1
20260906055503 72 0 0.0 0.0 0.00 0.03 0.00 95 1010.1
20260906055003 72 0 0.0 0.0 0.00 0.03 0.00 95 1010.2
20260906054503 72 0 0.0 0.0 0.00 0.03 0.00 95 1010.3
20260906054003 72 0 0.0 0.0 0.00 0.03 0.00 95 1010.3
20260906053503 72 0 0.0 0.0 0.00 0.03 0.00 95 1010.4
20260906053003 72 0 0.0 0.0 0.00 0.03 0.00 95 1010.4
20260906052503 72 0 0.0 0.0 0.00 0.03 0.00 95 1010.5
20260906052003 72 0 0.0 0.0 0.00 0.03 0.00 95 1010.5
20260906051503 72 0 0.0 0.0 0.00 0.03 0.00 95 1010.6
20260906051003 72 0 0.0 0.0 0.00 0.03 0.00 95 1010.7
20260906050503 72 0 0.0 0.0 0.00 0.03 0.00 95 1010.7
20260906050003 73 0 0.0 0.0 0.00 0.03 0.00 95 1010.6
20260906045503 73 0 0.0 0.0 0.00 0.03 0.00 95 1010.6
20260906045003 73 0 0.0 0.0 0.00 0.03 0.00 95 1010.6
20260906044503 73 0 0.0 0.0 0.00 0.03 0.00 95 1010.8
20260906044003 73 244 0.0 0.9 0.00 0.03 0.00 95 1010.9
20260906043503 73 244 0.0 0.9 0.00 0.03 0.00 95 1010.9
20260906043003 73 0 0.0 0.0 0.00 0.03 0.00 95 1010.9
20260906042503 73 0 0.0 0.0 0.00 0.03 0.00 95 1010.9
20260906042003 73 0 0.0 0.0 0.00 0.03 0.00 94 1010.9
20260906041503 73 0 0.0 0.0 0.00 0.03 0.00 94 1010.9
20260906041003 73 0 0.0 0.0 0.00 0.03 0.00 94 1010.9
20260906040503 73 0 0.0 0.0 0.00 0.03 0.00 94 1010.9
20260906040004 73 0 0.0 0.0 0.00 0.03 0.00 94 1011.0
20260906035503 73 0 0.0 0.0 0.00 0.03 0.03 94 1011.0
20260906035003 74 0 0.0 0.0 0.00 0.03 0.03 94 1011.1
20260906034503 74 0 0.0 0.0 0.00 0.03 0.03 94 1011.2
20260906034003 74 0 0.0 0.0 0.00 0.03 0.03 94 1011.0
20260906033503 74 0 0.0 0.0 0.00 0.03 0.03 94 1011.1
20260906033003 74 0 0.0 0.0 0.00 0.03 0.03 94 1011.1
20260906032503 74 0 0.0 0.0 0.00 0.03 0.03 94 1011.1
20260906032003 74 0 0.0 0.0 0.00 0.03 0.03 94 1011.1
20260906031503 74 0 0.0 0.0 0.00 0.03 0.03 94 1011.0
20260906031003 74 0 0.0 0.0 0.00 0.03 0.03 93 1010.9
20260906030503 74 0 0.0 0.0 0.00 0.03 0.03 93 1010.9
20260906030003 74 0 0.0 0.0 0.00 0.03 0.03 93 1010.8
20260906025503 74 0 0.0 0.0 0.00 0.03 0.03 93 1010.9
20260906025003 74 0 0.0 0.0 0.00 0.03 0.03 93 1010.8
20260906024503 74 0 0.0 0.0 0.00 0.03 0.03 92 1010.8
20260906024003 74 0 0.0 0.0 0.00 0.03 0.03 92 1010.9
20260906023503 74 0 0.0 0.0 0.00 0.03 0.03 92 1010.9
20260906023003 75 0 0.0 0.0 0.00 0.03 0.03 92 1010.9
20260906022503 75 0 0.0 0.0 0.00 0.03 0.03 92 1011.0
20260906022003 75 87 0.0 1.7 0.00 0.03 0.03 92 1010.8
20260906021503 74 87 0.0 1.7 0.00 0.03 0.03 93 1010.9
20260906021003 74 0 0.0 0.0 0.00 0.03 0.03 93 1010.7
20260906020503 74 0 0.0 0.0 0.00 0.03 0.03 93 1010.6
20260906020003 74 0 0.0 0.0 0.00 0.03 0.03 93 1010.6
20260906015503 74 0 0.0 0.0 0.00 0.03 0.03 94 1010.6
20260906015004 74 0 0.0 0.0 0.00 0.03 0.03 94 1010.7
20260906014503 74 0 0.0 0.0 0.00 0.03 0.03 94 1010.6
20260906014003 74 0 0.0 0.0 0.00 0.03 0.03 93 1010.5
20260906013503 74 0 0.0 0.0 0.00 0.03 0.03 93 1010.5
20260906013003 74 0 0.0 0.0 0.00 0.03 0.03 94 1010.5
20260906012503 74 0 0.0 0.0 0.00 0.03 0.03 93 1010.5
20260906012003 74 0 0.0 0.0 0.00 0.03 0.03 93 1010.4
20260906011503 75 0 0.0 0.0 0.00 0.03 0.03 93 1010.4
20260906011003 75 0 0.0 0.0 0.00 0.03 0.03 93 1010.4
20260906010503 75 0 0.0 0.0 0.00 0.03 0.03 93 1010.4
20260906010003 75 0 0.0 0.0 0.00 0.03 0.03 93 1010.4
20260906005503 75 0 0.0 0.0 0.00 0.03 0.03 93 1010.4
20260906005003 75 0 0.0 0.0 0.00 0.03 0.03 93 1010.3
20260906004503 75 0 0.0 0.0 0.00 0.03 0.03 92 1010.3
20260906004003 75 0 0.0 0.0 0.00 0.03 0.03 93 1010.3
20260906003503 75 0 0.0 0.0 0.00 0.03 0.03 92 1010.3
20260906003003 76 0 0.0 0.0 0.00 0.03 0.03 92 1010.2
20260906002503 76 0 0.0 0.0 0.00 0.03 0.03 92 1010.2
20260906002003 76 0 0.0 0.0 0.00 0.03 0.03 91 1010.1
20260906001503 76 0 0.0 0.0 0.00 0.03 0.03 91 1010.1
20260906001003 76 0 0.0 0.0 0.00 0.03 0.03 91 1010.0
20260906000503 76 0 0.0 0.0 0.00 0.03 0.03 91 1010.0
20260906000003 76 0 0.0 0.0 0.00 0.03 0.03 91 1009.7
20260905235503 76 0 0.0 0.0 0.00 0.03 0.03 90 1009.7
20260905235003 76 0 0.0 0.0 0.00 0.03 0.03 90 1009.8
20260905234503 77 0 0.0 0.0 0.00 0.03 0.03 90 1009.7
20260905234003 77 0 0.0 0.0 0.00 0.03 0.03 89 1009.6
20260905233503 77 0 0.0 0.0 0.00 0.03 0.03 89 1009.5
20260905233003 77 0 0.0 0.0 0.00 0.03 0.03 89 1009.4
20260905232503 77 0 0.0 0.0 0.00 0.03 0.03 89 1009.2
20260905232003 78 0 0.0 0.0 0.00 0.03 0.03 89 1009.2
20260905231503 78 0 0.0 0.0 0.00 0.03 0.03 89 1009.2
20260905231003 78 0 0.0 0.0 0.00 0.03 0.03 88 1009.1
20260905230503 78 0 0.0 0.0 0.00 0.03 0.03 88 1008.9
20260905230003 78 0 0.0 0.0 0.00 0.03 0.03 88 1008.6
20260905225503 78 0 0.0 0.0 0.00 0.03 0.03 89 1008.6
20260905225003 77 0 0.0 0.0 0.00 0.03 0.03 88 1008.6
20260905224503 77 0 0.0 0.0 0.00 0.03 0.03 89 1008.2
20260905224003 77 0 0.0 0.0 0.00 0.03 0.03 89 1008.3
20260905223503 77 0 0.0 0.0 0.00 0.03 0.03 90 1008.4
20260905223003 77 0 0.0 0.0 0.00 0.03 0.03 90 1008.5
20260905222503 76 0 0.0 0.0 0.00 0.03 0.03 91 1008.8
20260905222003 76 0 0.0 0.0 0.00 0.03 0.03 91 1008.9
20260905221503 76 0 0.0 0.0 0.00 0.03 0.03 91 1009.0
20260905221003 76 0 0.0 0.0 0.01 0.03 0.03 90 1009.3
20260905220503 76 0 0.0 0.0 0.01 0.03 0.03 91 1009.3
20260905220003 76 0 0.0 0.0 0.01 0.03 0.03 91 1009.3
20260905215503 76 0 0.0 0.0 0.02 0.03 0.03 91 1009.2
20260905215003 76 0 0.0 0.0 0.03 0.03 0.03 91 1009.2
20260905214503 75 0 0.0 0.0 0.03 0.03 0.03 90 1009.1
20260905214003 76 238 0.0 0.9 0.03 0.03 0.03 90 1009.2
20260905213503 76 238 0.0 0.9 0.03 0.03 0.03 90 1009.0
20260905213003 76 0 0.0 0.0 0.03 0.03 0.03 90 1008.8
20260905212503 76 0 0.0 0.0 0.03 0.03 0.03 88 1008.7
20260905212003 76 0 0.0 0.0 0.03 0.03 0.03 87 1008.7
20260905211503 76 0 0.0 0.0 0.03 0.03 0.03 87 1008.8
20260905211003 77 0 0.0 0.0 0.02 0.02 0.02 85 1008.8
20260905210503 77 0 0.0 0.0 0.02 0.02 0.02 84 1008.9
20260905210003 78 50 0.0 2.6 0.02 0.02 0.02 82 1008.9
20260905205503 79 62 0.0 2.6 0.01 0.01 0.01 79 1009.0
20260905205003 80 66 0.0 2.6 0.00 0.00 0.00 76 1008.8
20260905204503 80 52 0.9 3.5 0.00 0.00 0.00 73 1008.8
20260905204003 81 57 0.9 3.5 0.00 0.00 0.00 73 1008.9
20260905203503 81 61 1.7 5.2 0.00 0.00 0.00 72 1008.9
20260905203003 81 61 0.9 5.2 0.00 0.00 0.00 71 1009.0
20260905202503 82 66 0.9 5.2 0.00 0.00 0.00 70 1008.8
20260905202003 82 75 1.7 7.0 0.00 0.00 0.00 69 1008.4
20260905201503 82 63 2.6 8.7 0.00 0.00 0.00 68 1008.6
20260905201003 83 52 3.5 11.3 0.00 0.00 0.00 67 1008.8
20260905200503 84 49 3.5 11.3 0.00 0.00 0.00 66 1009.1
20260905200003 84 37 1.7 8.7 0.00 0.00 0.00 64 1009.0
20260905195503 85 70 3.5 13.0 0.00 0.00 0.00 64 1008.9
20260905195004 86 62 6.1 15.6 0.00 0.00 0.00 63 1009.1
20260905194503 88 41 4.3 15.6 0.00 0.00 0.00 58 1009.1
20260905194003 93 39 1.7 13.0 0.00 0.00 0.00 52 1008.9
20260905193503 94 30 0.0 4.3 0.00 0.00 0.00 50 1008.6
20260905193003 94 28 0.9 4.3 0.00 0.00 0.00 49 1008.4
20260905192503 95 30 0.9 2.6 0.00 0.00 0.00 48 1008.2
20260905192003 95 24 0.0 2.6 0.00 0.00 0.00 47 1008.1
20260905191503 95 28 0.9 5.2 0.00 0.00 0.00 48 1008.1
20260905191003 95 27 0.9 5.2 0.00 0.00 0.00 47 1008.1
20260905190503 96 355 0.0 0.9 0.00 0.00 0.00 46 1008.0
20260905190003 96 32 0.0 3.5 0.00 0.00 0.00 44 1008.0
20260905185503 97 41 0.9 5.2 0.00 0.00 0.00 46 1008.1
20260905185003 98 44 0.9 5.2 0.00 0.00 0.00 41 1008.1
20260905184503 99 206 0.0 3.5 0.00 0.00 0.00 39 1008.2
20260905184003 99 226 0.9 3.5 0.00 0.00 0.00 38 1008.2
20260905183503 99 235 0.0 2.6 0.00 0.00 0.00 39 1008.2
20260905183003 99 289 0.0 1.7 0.00 0.00 0.00 42 1008.3
20260905182503 99 47 0.0 1.7 0.00 0.00 0.00 43 1008.5
20260905182003 98 57 0.9 6.1 0.00 0.00 0.00 44 1008.6
20260905181503 98 56 0.9 6.1 0.00 0.00 0.00 42 1008.7
20260905181003 98 279 0.0 2.6 0.00 0.00 0.00 45 1008.8
20260905180503 97 280 0.9 2.6 0.00 0.00 0.00 46 1008.9
20260905180003 97 283 0.9 4.3 0.00 0.00 0.00 46 1009.1
20260905175503 96 13 0.9 4.3 0.00 0.00 0.00 46 1009.2
20260905175003 96 46 0.9 5.2 0.00 0.00 0.00 45 1009.4
20260905174503 97 33 0.9 5.2 0.00 0.00 0.00 45 1009.6
20260905174003 98 22 0.9 5.2 0.00 0.00 0.00 46 1009.7
20260905173503 98 43 0.0 2.6 0.00 0.00 0.00 48 1009.8
20260905173003 98 53 0.0 4.3 0.00 0.00 0.00 50 1009.9
20260905172503 97 40 0.9 5.2 0.00 0.00 0.00 50 1009.9
20260905172003 97 28 0.9 5.2 0.00 0.00 0.00 49 1010.0
20260905171503 96 358 0.9 4.3 0.00 0.00 0.00 49 1010.1
20260905171003 96 34 0.9 3.5 0.00 0.00 0.00 52 1010.2
20260905170503 96 49 0.0 3.5 0.00 0.00 0.00 49 1010.3
20260905170003 96 67 0.0 2.6 0.00 0.00 0.00 51 1010.4
20260905165503 95 261 0.0 2.6 0.00 0.00 0.00 55 1010.5
20260905165003 95 255 0.9 3.5 0.00 0.00 0.00 51 1010.5
20260905164503 94 31 0.9 4.3 0.00 0.00 0.00 53 1010.5
20260905164003 94 62 0.9 4.3 0.00 0.00 0.00 55 1010.5
20260905163503 94 49 0.9 4.3 0.00 0.00 0.00 54 1010.5
20260905163003 94 42 0.9 4.3 0.00 0.00 0.00 54 1010.6